THOR ABLESTAR DEB, 4005

Orbit data source: Space-Track

THOR ABLESTAR DEB, 4005 is space debris in LEO originally from a launch on Thu, 29 Jun 1961 UTC launched from the Air Force Eastern Test Range (AFETR). Debris objects in space refer to the collection of defunct objects orbiting the Earth. Examples of debris include non-operational satellites, rocket bodies, and fragments generated from explosions, collisions, or faulty payload assembly.

Loading next visibility...
Identifier
4005, 1961-015JK
Orbit
LEO
Country
Flag of USUS
Related business
Manufacturer
Unknown
Mission
Spacecraft
Bus & Motor
Unknown
Mass
Unknown
Launch date (UTC)
1961-06-29 (64 years ago)
Launch vehicle
Unknown
Launch site
Air Force Eastern Test Range (AFETR)
Object type
Payload
Rocket body
Debris
Shape & HBR
Unknown shape, 0.1 m
Radar Cross Section
Small (<0.1 m²)

Expand to show TLE details & history
Last TLE update: 2 days ago

TLE from 2 days ago
0 THOR ABLESTAR DEB
1 04005U 61015JK  25347.40948494  .00000627  00000-0  67602-3 0  9994
2 04005  66.7495 108.2322 0086513  50.2836  10.5567 13.78246050862199
Epoch: 2025-12-13T09:49Z
TLE epoch observation values (Epoch: 2025-12-13T09:49:39.498Z)
Latitude
53.60972°
Longitude
-86.07578°
Altitude
915.571 km
Speed
7.431 km/s
True Right ascension
09h 34m 42s
True Declination
53° 26' 56"
Sunlit
Object was in full shadow at epoch
Visualization orbit readout
Latitude
Unknown
Longitude
Unknown
Altitude
Unknown
Speed
Unknown
Apparent Right ascension
Unknown
Apparent Declination
Unknown
Sunlit
N/A
Visualization observer readout
Local Sidereal Time
13:03:14
Azimuth
Unknown
Elevation
Unknown
Doppler factor
Unknown
Orbital elements
Apogee altitude
1,032.081 km
Perigee altitude
904.965 km
Semi-major axis
7,346.66 km
Eccentricity
0.00865
Inclination
66.7495°
RAAN
108.2322°
Arg. of periapsis
50.2836°
True anomaly
10.74028°
Mean anomaly
10.5567°
Eccentric anomaly
10.64829°
Mean motion
3.44674 °/min
Orbital period
104.45 mins
BSTAR
0.00067602
Loading maneuver chart data...
Computing Atmospheric mass density...
Loading historical data...
Loading historical data...
Loading historical data...
Loading historical data...
Loading historical data...
Loading historical data...
Loading historical data...

Documentation

Showing up to 5 results
|